Forside
METAR-TAF:

METAR-TAF

Lufthavne :

Community_Airport

Owosso, Michigan, USA

Breddekreds: 42-59-34N, længdekreds: 084-08-20W, højde: 224 m

Aktuelle vejr

Denne rapport blev lavet for 23 minutter siden, kl. 02:35 UTC
Vind stille
Temperatur 21°C
Fugtighed 78%
Tryk 1014 hPa
Sigt: 16.1 km
skyfri

METAR: KRNP 250235Z AUTO 00000KT 10SM CLR 21/17 A2994 RMK AO2 T02130171

Tid: 22:58 (02:58 UTC)


TAF: fraværende

Vejrobservationer og prognoser fra mere end 4000 lufthavne (METAR og TAF).

De gule og røde prikker repræsenterer de meteorologiske stationer.

Flyt musen over at se navnet på stationen.

Så klik over at se vejr observationer og prognoser.

At skifte det kort: Klik på de grønne knapper med et sort kors for at zoome ind; på den grønne knap med en bindestreg for at zoome ud; eller på de grønne pile for tilstødende kort.


METAR-TAF: